Regional Weather Roundup
Issued by NWS

Home | Current Version | Previous Version | Text Only | Print | Product List | Glossary On
Versions: 1 2 3 4 5 6 7 8 9 10 11 12 13 14 15 16 17 18 19 20 21 22 23 24 25 26 27 28 29 30 31 32 33 34 35 36 37 38 39 40 41 42 43 44 45 46 47 48 49 50
000
ASUS43 KDTX 231010
RWRMI
MICHIGAN HOURLY REGIONAL WEATHER ROUNDUP
NATIONAL WEATHER SERVICE DETROIT/PONTIAC MI
500 AM EST SUN NOV 23 2014

NOTE: "FAIR" INDICATES FEW OR NO CLOUDS BELOW 12,000 FEET WITH NO
SIGNIFICANT WEATHER AND/OR OBSTRUCTION TO VISIBILITY.

MIZ047>049-052>055-059>063-066>070-074>076-081>083-231100-
SOUTHEAST LOWER MICHIGAN

CITY           SKY/WX    TMP DP  RH WIND       PRES   REMARKS
ADRIAN         CLOUDY    44  42  93 SW9       29.95F
ALMA           CLOUDY    47  45  91 S9        29.85S
ANN ARBOR      LGT RAIN  45  42  89 S8        29.94S
BAD AXE        CLOUDY    43  43 100 S3        29.87F FOG
DETROIT CITY   CLOUDY    50  40  68 SW14      29.94F
DETROIT        LGT RAIN  46  42  86 S15       29.95F
FLINT          CLOUDY    51  44  77 SW8       29.89S
GROSSE ILE     LGT RAIN  45  39  81 S8        29.95S
HILLSDALE      DRIZZLE   46  46 100 S6        29.91F
HOWELL         CLOUDY    49  44  82 S9        29.89S

CITY           SKY/WX    TMP DP  RH WIND       PRES   REMARKS
JACKSON        LGT RAIN  47  44  90 S8        29.90F
LAMBERTVILLE   LGT RAIN  46  43  87 S5        29.97S
LANSING        CLOUDY    50  44  80 S13       29.88F
LAPEER         NOT AVBL
MASON          CLOUDY    49  45  85 S7        29.89S
MONROE         CLOUDY    46  43  87 S6        29.94F
MT. CLEMENS    MOCLDY    45  43  93 S10       29.90F
PONTIAC        CLOUDY    47  40  76 S8        29.90F
PORT HOPE        N/A     42  40  92 VRB3      29.86F
PORT HURON     CLEAR     41  39  93 S7        29.92S
TRI CITIES     CLOUDY    49  44  83 S6        29.87R
YPSILANTI      LGT RAIN  49  42  77 S14       29.94F
$$
MIZ043>046-050>051-056>058-064>065-071>073-077>080-231100-
SOUTHWEST LOWER MICHIGAN

CITY           SKY/WX    TMP DP  RH WIND       PRES   REMARKS
BATTLE CREEK   LGT RAIN  49  44  83 S12       29.88F
BENTON HARBOR  CLOUDY    49  45  86 S14       29.83F
BIG RAPIDS     CLOUDY    45  45 100 SE5       29.80F FOG
COLDWATER      CLOUDY    49  45  85 SW9       29.90S
HOLLAND        CLOUDY    51  46  83 S12       29.83F
GRAND RAPIDS   CLOUDY    47  43  86 S13       29.84F
KALAMAZOO      CLOUDY    47  44  90 S12       29.87F
MARSHALL       CLOUDY    47  44  90 S9        29.88F
MUSKEGON       CLOUDY    50  44  80 S20G28    29.79F
$$
MIZ016>042-231100-
NORTHERN LOWER MICHIGAN

CITY           SKY/WX    TMP DP  RH WIND       PRES   REMARKS
ALPENA         CLOUDY    38  38 100 SE7       29.81F FOG
BEAVER ISLAND  CLOUDY    43  42  97 S8        29.74S FOG
BELLAIRE       CLOUDY    43  42  96 S5        29.76F FOG
CADILLAC       FOG       42  42 100 S10       29.77F VSB 1/4
CHARLEVOIX     FOG       40  40 100 S7        29.77F VSB 3/4
FRANKFORT      DRIZZLE   46  45  97 S10       29.73F
GAYLORD        FOG       38  38 100 S7        29.76F VSB 1/4
GRAYLING       FOG       41  41 100 S6        29.79F VSB 1/2
HARBOR SPRINGS CLOUDY    42  41  97 CALM      29.75F FOG
HOUGHTON LAKE  FOG       41  40  96 S5        29.82S VSB 1/4
MANISTEE       MOCLDY    45  43  93 SE5       29.76F
OSCODA         FOG       41  41 100 CALM      29.85S VSB 1/4
PELLSTON       CLOUDY    38  38 100 CALM      29.76F FOG
TRAVERSE CITY  CLOUDY    43  41  93 CALM      29.75F FOG
$$
MIZ007>008-015-231100-
EASTERN UPPER MICHIGAN

CITY           SKY/WX    TMP DP  RH WIND       PRES   REMARKS
KINROSS        CLOUDY    36  36 100 SE8       29.76S VSB 1/4
MACKINAC ISLAN CLOUDY    40  40 100 SE7       29.75F FOG
NEWBERRY       FOG       36  36 100 SE7       29.71F VSB 3/4
S. S. MARIE    FOG       35  34  96 E6        29.77R VSB 1/4
$$
MIZ004>006-011>014-085-231100-
CENTRAL UPPER MICHIGAN

CITY           SKY/WX    TMP DP  RH WIND       PRES   REMARKS
MANISTIQUE     FOG       38  38 100 SE5       29.70F VSB 1/2
ESCANABA       CLOUDY    37  36  93 SE6       29.66F VSB 1/4
MENOMINEE      CLOUDY    43  41  93 S9        29.65S
SAWYER-GWINN   FOG       35  34  96 S10       29.62F VSB 1/2
$$
MIZ001>003-009>011-084-231100-
WESTERN UPPER MICHIGAN

CITY           SKY/WX    TMP DP  RH WIND       PRES   REMARKS
IRON MOUNTAIN  FOG       34  33  96 SE7       29.60F VSB 1/4
HOUGHTON       CLOUDY    34  31  88 E10       29.55F
COPPER HARBOR    N/A     36  31  82 SW7       29.57F
IRONWOOD       CLOUDY    41  41 100 S9        29.46F
$$

ABBREVIATIONS USED IN REMARKS
   TC - TEMPERATURE IN CELSIUS
  WCI - WIND CHILL INDEX
   HX - HEAT INDEX
  VSB - VISIBILITY



USA.gov is the U.S. government's official web portal to all federal, state and local government web resources and services.